Edinburg, TX

10:48 AM CST on February 06, 2016 (GMT -0600)
Edinburg

Weather History for KEBG - April, 2013

Change the Weather History Date:

Saturday, April 6, 2013

  Actual Average (KMFE) Record (KMFE)
Temperature  
Mean Temperature 72 °F 75 °F  
Max Temperature 84 °F 86 °F 99 °F (1955)
Min Temperature 60 °F 64 °F 40 °F (1881)
Degree Days  
Heating Degree Days 0 0  
Month to date heating degree days 3  
Since 1 July heating degree days 574  
Cooling Degree Days 7 10  
Month to date cooling degree days 60  
Year to date cooling degree days 437  
Growing Degree Days 22 (Base 50)    
Moisture  
Dew Point 58 °F    
Average Humidity 63    
Maximum Humidity 83    
Minimum Humidity 40    
Precipitation  
Precipitation 0.00 in 0.03 in 0.84 in (1991)
Month to date precipitation 0.18  
Year to date precipitation 3.37  
Sea Level Pressure  
Sea Level Pressure 29.97 in    
Wind  
Wind Speed 10 mph (SE)    
Max Wind Speed 20 mph    
Max Gust Speed 32 mph    
Visibility 7 miles    
Events      
T = Trace of Precipitation, MM = Missing Value Source: NWS Daily Summary

Daily Weather History Graph

Daily Weather History Graph

Search for Another Location

Airport or City:

Trip Planner

Search our weather history database for the weather conditions in past years. The results will help you decide how hot, cold, wet, or windy it might be!

Date:

Astronomy

Apr. 06, 2013 Rise Set
Actual Time 7:17 AM CDT 7:52 PM CDT
Civil Twilight 6:54 AM CDT 8:15 PM CDT
Nautical Twilight 6:27 AM CDT 8:42 PM CDT
Astronomical Twilight 5:59 AM CDT 9:10 PM CDT
Moon 4:42 AM CDT 4:39 PM CDT
Length of Visible Light 13h 21m
Length of Day
12h 34m
Waning Crescent, 15% of the Moon is Illuminated
Apr 6
Waning Crescent
Apr 10
New
Apr 18
First Quarter
Apr 25
Full
May 2
Last Quarter

Hourly Weather History & Observations

Time (CDT) Temp. Heat Index Dew Point Humidity Pressure Visibility Wind Dir Wind Speed Gust Speed Precip Events Conditions
12:15 AM 63.1 °F - 54.9 °F 74% 30.09 in 10.0 mi SE 6.9 mph - N/A   Clear
12:35 AM 63.1 °F - 55.0 °F 75% 30.09 in 7.0 mi SE 6.9 mph - N/A   Clear
12:55 AM 63.0 °F - 55.2 °F 76% 30.08 in 7.0 mi SE 5.8 mph - N/A   Clear
1:15 AM 62.8 °F - 55.4 °F 77% 30.08 in 7.0 mi ESE 5.8 mph - N/A   Clear
1:35 AM 62.6 °F - 55.0 °F 76% 30.07 in 7.0 mi SE 6.9 mph - N/A   Clear
1:55 AM 62.6 °F - 55.4 °F 77% 30.06 in 10.0 mi SE 8.1 mph - N/A   Clear
2:15 AM 62.6 °F - 55.6 °F 78% 30.06 in 7.0 mi SE 4.6 mph - N/A   Clear
2:35 AM 62.4 °F - 55.4 °F 78% 30.06 in 7.0 mi SE 3.5 mph - N/A   Clear
2:55 AM 61.9 °F - 55.2 °F 79% 30.05 in 7.0 mi SE 5.8 mph - N/A   Clear
3:15 AM 60.3 °F - 54.5 °F 81% 30.04 in 7.0 mi SE 3.5 mph - N/A   Clear
3:35 AM 60.8 °F - 55.0 °F 81% 30.04 in 7.0 mi Calm Calm - N/A   Clear
3:55 AM 60.1 °F - 54.3 °F 81% 30.02 in 10.0 mi ESE 4.6 mph - N/A   Clear
4:15 AM 60.1 °F - 54.5 °F 82% 30.02 in 7.0 mi East 4.6 mph - N/A   Clear
4:35 AM 61.0 °F - 55.4 °F 82% 30.01 in 7.0 mi East 6.9 mph - N/A   Clear
4:55 AM 60.8 °F - 55.0 °F 81% 30.01 in 7.0 mi SE 4.6 mph - N/A   Clear
5:15 AM 61.0 °F - 55.4 °F 82% 30.02 in 5.0 mi ESE 4.6 mph - N/A   Haze
5:55 AM 60.8 °F - 55.4 °F 82% 30.01 in 7.0 mi ESE 6.9 mph - N/A   Scattered Clouds
6:15 AM 61.0 °F - 55.8 °F 83% 30.01 in 7.0 mi ESE 6.9 mph - N/A   Clear
6:35 AM 62.1 °F - 56.5 °F 82% 30.01 in 7.0 mi ESE 6.9 mph - N/A   Scattered Clouds
6:55 AM 63.0 °F - 57.2 °F 81% 29.98 in 7.0 mi ESE 11.5 mph - N/A   Clear
7:15 AM 64.2 °F - 58.1 °F 80% 30.01 in 7.0 mi NE 3.5 mph - N/A   Clear
7:35 AM 65.8 °F - 58.3 °F 77% 30.00 in 7.0 mi ESE 11.5 mph - N/A   Clear
7:55 AM 65.8 °F - 58.5 °F 77% 30.01 in 5.0 mi SE 11.5 mph - N/A   Haze
8:15 AM 66.4 °F - 58.5 °F 76% 29.99 in 7.0 mi SE 11.5 mph - N/A   Clear
8:35 AM 67.1 °F - 58.8 °F 75% 30.01 in 7.0 mi SE 10.4 mph - N/A   Clear
8:55 AM 68.0 °F - 59.0 °F 73% 30.00 in 7.0 mi SE 16.1 mph - N/A   Clear
9:15 AM 70.5 °F - 59.2 °F 67% 30.02 in 5.0 mi SE 15.0 mph - N/A   Haze
9:55 AM 71.8 °F - 59.0 °F 64% 30.00 in 7.0 mi SSE 19.6 mph 24.2 mph N/A   Clear
10:15 AM 72.1 °F - 59.0 °F 63% 29.98 in 7.0 mi SSE 19.6 mph 25.3 mph N/A   Clear
10:35 AM 73.8 °F - 58.6 °F 59% 30.00 in 7.0 mi SSE 12.7 mph 32.2 mph N/A   Clear
10:55 AM 74.8 °F - 59.0 °F 58% 30.03 in 7.0 mi SSE 11.5 mph 26.5 mph N/A   Mostly Cloudy
11:15 AM 74.8 °F - 58.5 °F 57% 30.03 in 4.0 mi SSE 17.3 mph - N/A   Haze
11:55 AM 75.2 °F - 59.0 °F 57% 30.03 in 7.0 mi SE 12.7 mph - N/A   Overcast
12:15 PM 76.6 °F - 58.8 °F 54% 30.02 in 5.0 mi SSE 10.4 mph - N/A   Haze
12:35 PM 78.6 °F - 58.1 °F 49% 30.01 in 5.0 mi SSE 16.1 mph - N/A   Haze
12:55 PM 78.8 °F - 58.3 °F 49% 30.00 in 7.0 mi SSE 11.5 mph 19.6 mph N/A   Mostly Cloudy
1:15 PM 80.2 °F 80.6 °F 57.6 °F 46% 29.98 in 7.0 mi SSE 17.3 mph 23.0 mph N/A   Mostly Cloudy
1:35 PM 82.0 °F 81.8 °F 57.4 °F 43% 29.97 in 5.0 mi SSE 15.0 mph 25.3 mph N/A   Haze
1:55 PM 81.7 °F 81.5 °F 57.2 °F 43% 29.97 in 7.0 mi SSE 12.7 mph 16.1 mph N/A   Mostly Cloudy
2:15 PM 81.5 °F 81.5 °F 57.4 °F 44% 29.95 in 7.0 mi SE 16.1 mph 25.3 mph N/A   Mostly Cloudy
2:55 PM 84.0 °F 83.3 °F 57.2 °F 40% 29.92 in 7.0 mi SSE 18.4 mph 23.0 mph N/A   Mostly Cloudy
3:15 PM 82.6 °F 82.2 °F 57.4 °F 42% 29.91 in 7.0 mi SSE 16.1 mph 24.2 mph N/A   Overcast
3:35 PM 83.1 °F 82.7 °F 58.1 °F 42% 29.90 in 7.0 mi SSE 12.7 mph 25.3 mph N/A   Overcast
3:55 PM 83.3 °F 83.1 °F 58.5 °F 43% 29.89 in 7.0 mi South 15.0 mph 23.0 mph N/A   Mostly Cloudy
4:15 PM 83.5 °F 83.1 °F 58.5 °F 42% 29.88 in 7.0 mi SSE 18.4 mph 25.3 mph N/A   Scattered Clouds
4:35 PM 83.8 °F 83.4 °F 58.3 °F 42% 29.87 in 7.0 mi South 18.4 mph 23.0 mph N/A   Scattered Clouds
4:55 PM 84.6 °F 84.0 °F 58.3 °F 41% 29.87 in 5.0 mi SSE 15.0 mph 23.0 mph N/A   Haze
5:15 PM 83.8 °F 83.4 °F 58.5 °F 42% 29.86 in 7.0 mi SSE 16.1 mph 24.2 mph N/A   Scattered Clouds
5:35 PM 83.7 °F 83.3 °F 58.3 °F 42% 29.86 in 7.0 mi SSE 16.1 mph 23.0 mph N/A   Clear
5:55 PM 82.9 °F 82.7 °F 58.5 °F 43% 29.85 in 5.0 mi SSE 18.4 mph 24.2 mph N/A   Haze
6:15 PM 82.2 °F 82.3 °F 58.6 °F 45% 29.85 in 7.0 mi SE 17.3 mph 24.2 mph N/A   Clear
6:35 PM 81.0 °F 81.3 °F 59.0 °F 47% 29.85 in 7.0 mi SE 17.3 mph 25.3 mph N/A   Clear
6:55 PM 80.1 °F 80.7 °F 59.0 °F 48% 29.86 in 5.0 mi SSE 15.0 mph 21.9 mph N/A   Haze
7:15 PM 78.8 °F - 58.8 °F 50% 29.86 in 7.0 mi SE 19.6 mph 24.2 mph N/A   Clear
7:35 PM 77.4 °F - 59.0 °F 53% 29.87 in 5.0 mi SE 13.8 mph 21.9 mph N/A   Haze
7:55 PM 76.1 °F - 59.0 °F 55% 29.87 in 7.0 mi SE 16.1 mph - N/A   Clear
8:15 PM 75.2 °F - 59.0 °F 57% 29.88 in 7.0 mi SSE 18.4 mph 23.0 mph N/A   Clear
8:35 PM 74.3 °F - 59.0 °F 59% 29.88 in 7.0 mi SE 12.7 mph 17.3 mph N/A   Clear
8:55 PM 73.8 °F - 59.0 °F 60% 29.89 in 7.0 mi SE 13.8 mph 23.0 mph N/A   Clear
9:15 PM 72.9 °F - 59.0 °F 62% 29.90 in 7.0 mi SE 15.0 mph 18.4 mph N/A   Clear
9:35 PM 72.5 °F - 59.0 °F 62% 29.90 in 7.0 mi SE 16.1 mph - N/A   Clear
9:55 PM 71.8 °F - 59.0 °F 64% 29.91 in 7.0 mi SE 11.5 mph 17.3 mph N/A   Clear
10:15 PM 71.6 °F - 59.4 °F 65% 29.91 in 7.0 mi SE 16.1 mph - N/A   Clear
10:35 PM 71.1 °F - 59.5 °F 67% 29.93 in 7.0 mi SE 12.7 mph 18.4 mph N/A   Clear
10:55 PM 70.7 °F - 60.1 °F 69% 29.93 in 7.0 mi SE 13.8 mph 18.4 mph N/A   Clear
11:15 PM 70.2 °F - 60.3 °F 71% 29.93 in 7.0 mi SE 10.4 mph 17.3 mph N/A   Clear
11:35 PM 70.0 °F - 60.8 °F 73% 29.93 in 7.0 mi SE 12.7 mph - N/A   Clear
11:55 PM 70.0 °F - 60.8 °F 73% 29.93 in 7.0 mi SE 10.4 mph - N/A   Clear